Location: Le Petit-Vavre
(46.5081°N, 1.5239°E)
Time: 18:29:56
(UTC+00:00)

Cosmos 1354 Rocket - Pass Details

Date: 03 March 2021
Orbit: 765 x 782 km, 74.0° (Epoch: 15 April)

Event Time Altitude Azimuth Distance (km) Brightness Sun altitude
Rises 18:18:28 0° 343° (NNW) 3,252 7.5 -6.9°
Reaches altitude 10° 18:21:00 10° 350° (N) 2,319 6.6 -7.4°
Maximum altitude 18:25:57 40° 60° (ENE) 1,119 4.5 -8.2°
Drops below altitude 10° 18:30:51 10° 130° (SE) 2,299 6.0 -9.0°
Sets 18:33:21 0° 138° (SE) 3,220 6.8 -9.5°
